Simultaneous Nadir Overpasses (SNOs) Predictions

Prediction of SNOs between GOES-15 and METOP-B Satellite Orbit:

Table of predicted SNOs for the next 14.0 days since TLE Epoch: 4/29/2023
Index Date Time (GOES-15) GOES-15 Lat,Lon METOP-B Lat,Lon Distance(km) Time Diff (sec)
1 04/30/2023 07:01:28 0.22,-140.91 -0.13,-142.53 184.59 80
2 05/01/2023 06:38:09 0.22,-141.38 1.07,-137.55 435.51 80
3 05/02/2023 18:59:43 -0.23,-142.09 -0.22,-142.15 6.43 80
4 05/04/2023 07:18:45 0.23,-142.82 -0.64,-146.78 451.52 80
5 05/05/2023 06:55:26 0.23,-143.28 0.57,-141.81 167.82 80
6 05/06/2023 19:17:00 -0.23,-143.98 0.28,-146.40 275.90 80
7 05/07/2023 18:53:41 -0.24,-144.43 -0.93,-141.43 342.99 80
8 05/09/2023 07:15:23 0.24,-145.14 0.02,-146.05 104.09 80
9 05/11/2023 19:10:57 -0.25,-146.27 -0.40,-145.67 68.19 80
